Flag for U.S.A. Weather past 2 weeks in Topeka, Kansas, U.S.A.

Now
70 °F

Partly sunny.


Feels Like: 74 °F
Forecast: 65 / 74 °F
Wind: 3 mph from Northeast

Location: Philip Billard Municipal Airport

Current Time: Jul 7, 2015 at 6:05:50 PM

Latest Report: Jul 7, 2015 at 4:53 PM


Visibility: 8 mi

Pressure: 30.05 "Hg

Humidity: 68%

Dew point: 59 °F

Location of TopekaLocation

Historic Weather in Topeka — Graph

°F

Topeka temperature yesterday

Maximum temperature yesterday: 92 °F (at 1:53 PM)
Minimum temperature yesterday: 67 °F (at 11:53 PM)
Average temperature yesterday: 79 °F

Past Weeks' High & Low Weather Summary

 TemperatureHumidityPressure
High96 °F (Jun 22, 4:53 PM)100% (Jul 4, 5:03 AM)30.13 "Hg (Jul 4, 5:03 AM)
Low60 °F (Jul 4, 5:03 AM)34% (Jun 28, 3:53 PM)29.74 "Hg (Jul 1, 6:53 PM)
Average77 °F72%29.92 "Hg
* Reported Jun 22 4:53 PM — Jul 7 4:53 PM, Topeka, Weather by CustomWeather, © 2015

Note: Actual official high and low records may vary slightly from our data, if they occured in-between our weather recording intervals... More about our weather records

Advertising

Topeka weather history for previous 24 hours

 ConditionsComfort  
Time TempWeatherWind HumidityBarometerVisibility
4:53 PM
Tue, Jul 7
70 °FPartly sunny.3 mph68%30.05 "Hg8 mi
3:53 PM70 °FSunny.7 mph66%30.05 "Hg7 mi
2:53 PM70 °FPartly sunny.12 mph66%30.06 "Hg8 mi
1:53 PM69 °FScattered clouds.12 mph68%30.07 "Hg6 mi
12:53 PM70 °FPassing clouds.8 mph68%30.08 "Hg9 mi
11:53 AM70 °FSunny.12 mph68%30.08 "Hg10 mi
10:53 AM67 °FSunny.14 mph68%30.07 "Hg10 mi
9:53 AM66 °FSunny.14 mph70%30.07 "Hg10 mi
8:53 AM63 °FPassing clouds.14 mph81%30.06 "Hg8 mi
7:53 AM63 °FFog.9 mph87%30.05 "Hg4 mi
6:53 AM65 °FFog.8 mph91%30.02 "Hg2 mi
5:53 AM65 °FFog.8 mph94%29.99 "Hg2 mi
5:00 AM63 °FRain. Fog.6 mph100%30.01 "Hg1 mi
3:53 AM63 °FRain. Fog.No wind97%30.00 "Hg1 mi
2:53 AM63 °FRain. Fog.6 mph97%29.99 "Hg1 mi
2:02 AM63 °FHeavy rain. Fog.24 mph93%30.00 "Hg1 mi
1:53 AM63 °FHeavy rain. Fog.22 mph93%29.96 "Hg1 mi
12:53 AM65 °FHeavy rain. Fog.18 mph97%29.96 "Hg1 mi
11:53 PM
Mon, Jul 6
67 °FLight rain. Fog.14 mph93%29.94 "Hg2 mi
10:53 PM69 °FLight rain. Fog.10 mph96%29.93 "Hg4 mi
9:53 PM72 °FLight rain. Fog.8 mph100%29.90 "Hg2 mi
8:53 PM72 °FLight rain. Fog.5 mph100%29.88 "Hg6 mi
7:53 PM73 °FLight rain. Mostly cloudy.5 mph97%29.87 "Hg10 mi
6:53 PM72 °FLight rain. Broken clouds.3 mph97%29.85 "Hg9 mi
Weather by CustomWeather, © 2015

See weather overviewHow to use our weather pages